Location: Dvory
(50.2115°N, 14.9964°E)
Time: 08:45:13
(UTC+00:00)

Daily predictions for brighter satellites

Satellite Brightness Start Highest point End
(mag) Time Altitude Azimuth Time Altitude Azimuth Time Altitude Azimuth
CZ-4C R/B 3.0 15:27:30 10° NW 15:34:27 70° NE 15:42:42 10° SE
Cosmos 1340 Rocket 3.4 15:32:49 10° NNW 15:36:53 66° W 15:40:56 10° S
ATLAS 2AS CENTAUR R/B 4.0 15:30:18 10° WNW 15:36:56 30° N 15:43:15 10° NE
ADEOS 3.8 15:32:38 10° SSE 15:37:52 78° WSW 15:43:08 10° NNW
Cosmos 841 Rocket 4.0 15:33:28 10° S 15:38:17 42° ESE 15:43:06 10° NE
Cosmos 2034 Rocket 4.0 15:32:32 10° S 15:38:40 80° E 15:44:52 10° NNE
Cosmos 1743 Rocket 3.6 15:37:24 10° N 15:41:46 87° WSW 15:46:05 10° S
Cosmos 1697 Rocket 3.2 15:36:14 10° NNW 15:41:48 65° WSW 15:47:20 10° SSE
USA 307 3.2 15:38:38 10° WNW 15:42:49 53° N 15:47:00 10° E
Cosmos 372 Rocket 4.0 15:38:31 10° NNW 15:43:46 68° ENE 15:48:59 10° SSE
Cosmos 2322 Rocket 3.2 15:39:30 10° NNW 15:44:10 25° NE 15:48:49 10° E
CZ-4C R/B 3.2 15:40:40 10° NNE 15:44:29 90° NNW 15:48:04 10° SSW
Meteor PRIRODA 3.5 15:41:23 10° SSE 15:44:59 69° ENE 15:48:36 10° N
Cosmos 1937 Rocket 3.7 15:39:47 10° NNW 15:45:08 82° WSW 15:50:27 10° SSE
ERBS 3.7 15:42:50 10° WNW 15:45:31 24° N 15:48:11 10° NE
USA 234 3.3 15:40:01 10° ESE 15:46:31 69° NNE 15:53:01 10° WNW
Lacrosse 5 rocket 1.2 15:42:51 10° NW 15:46:40 65° NNE 15:50:43 10° ESE
Cosmos 1980 Rocket 2.2 15:42:20 10° NNW 15:48:03 80° ENE 15:53:41 10° SSE
Cosmos 2026 Rocket 3.9 15:45:53 10° N 15:52:00 67° ENE 15:58:01 10° SSE
Cosmos 1666 Rocket 4.1 15:48:46 10° N 15:52:56 37° ENE 15:57:01 10° SE
AQUARIUS 4.4 15:49:13 10° SE 15:53:30 45° ENE 15:57:48 10° N
Cosmos 1809 Rocket 4.4 15:47:35 10° N 15:53:43 76° ENE 15:59:47 10° SSE
Cosmos 1125 Rocket 4.3 15:49:44 10° N 15:54:21 30° NE 15:58:58 10° ESE
CORIOLIS 4.3 15:50:09 10° SE 15:55:24 54° ENE 16:00:42 10° N
Cosmos 1634 Rocket 4.2 15:49:29 10° SSE 15:55:36 55° E 16:01:46 10° NNE
Cosmos 2195 Rocket 4.5 15:50:25 10° N 15:56:38 83° E 16:02:52 10° S
Cosmos 2369 4.1 15:53:56 10° NNW 15:59:39 71° WSW 16:05:20 10° SSE
H-2A R/B 2.5 15:55:06 10° SE 15:59:43 36° ENE 16:04:15 10° N
Cosmos 1812 3.4 15:59:09 10° SSE 16:02:38 33° E 16:06:08 10° NNE
PSLV R/B 4.2 16:00:26 10° SE 16:03:52 37° ENE 16:07:23 10° N
ATLAS CENTAUR R/B 3.7 16:01:58 10° NW 16:04:42 15° NNW 16:07:31 10° NNE
Okean O Rocket 2.8 16:01:19 10° ESE 16:04:45 22° ENE 16:08:13 10° N
SL-16 R/B 2.7 15:59:48 10° NNW 16:05:07 38° NE 16:10:23 10° ESE
Cosmos 2221 4.1 16:01:21 10° SW 16:05:17 35° WNW 16:09:17 10° N
USA 308 3.0 16:01:22 10° WNW 16:05:35 58° NNE 16:09:19 13° E
CZ-2C R/B 3.2 16:01:48 10° S 16:06:36 70° WSW 16:11:22 10° NNW
Sich 1 3.0 16:04:21 10° N 16:08:41 90° S 16:13:01 10° S
Cosmos 2082 Rocket 2.3 16:03:46 10° SSW 16:09:22 64° ESE 16:14:59 10° NE
Cosmos 540 Rocket 3.5 16:05:12 10° SSW 16:10:19 87° WNW 16:15:28 10° NNE
Meteor 1-5 Rocket 4.4 16:04:43 10° N 16:10:38 57° ENE 16:16:25 10° SSE
ARGOS 3.8 16:06:11 10° ESE 16:10:51 31° ENE 16:15:32 10° N
FengYun 1-2 T 4.3 16:08:46 10° SSE 16:14:21 84° WSW 16:19:55 10° NNW
COSMOS 2455 2.8 16:10:00 10° SSW 16:16:01 82° ESE 16:21:44 12° NE
SMAP 3.0 16:12:23 10° SSE 16:17:03 86° ENE 16:21:44 10° NNW
NOAA 6 4.0 16:13:24 10° SSE 16:18:32 87° ENE 16:23:41 10° NNW
deb Chang Zheng 4 4.2 16:16:54 10° SE 16:20:45 33° ENE 16:24:37 10° N
Cosmos 1805 Rocket 4.4 16:16:55 10° NNW 16:21:09 54° W 16:25:22 10° S
Cosmos 2278 3.8 16:16:25 10° NNW 16:22:10 81° WSW 16:27:51 10° SSE
Cosmos 1933 3.9 16:18:27 10° SSW 16:22:25 58° WNW 16:26:25 10° N
Cosmos 1833 Rocket 3.3 16:17:18 10° SW 16:22:49 56° NW 16:28:23 10° NNE
Cosmos 2333 Rocket 3.5 16:20:02 10° NNW 16:24:17 21° NE 16:26:02 18° ENE
CZ-4B DEB 4.1 16:22:10 10° SSE 16:27:41 82° ENE 16:33:11 10° NNW
CZ-2C R/B 3.2 16:25:19 12° NNE 16:29:32 32° E 16:34:09 10° SSE
USA 305 2.8 16:25:46 10° WNW 16:30:01 72° NNE 16:32:51 20° E
Cosmos 1655 Rocket 4.2 16:25:02 10° N 16:31:13 47° ENE 16:37:18 10° SE
Cosmos 1356 Rocket 4.1 16:28:21 10° N 16:32:09 32° ENE 16:36:00 10° SE
Cosmos 2219 Rocket 3.6 16:28:23 10° N 16:32:23 19° NE 16:33:20 18° NE
CZ-4B R/B 4.4 16:29:35 10° SSW 16:33:13 36° W 16:36:45 10° NNW
Cosmos 1500 4.1 16:30:42 10° NNW 16:34:21 50° W 16:37:56 10° S
Meteor 1-14 Rocket 4.3 16:28:46 10° NNW 16:34:40 90° W 16:40:38 10° S
Cosmos 44 Rocket 3.4 16:31:36 10° NW 16:36:34 78° SW 16:41:20 10° SSE
Meteor 2-16 Rocket 4.4 16:32:41 10° N 16:38:52 87° E 16:45:01 10° S
Cosmos 1515 Rocket 4.2 16:37:53 10° SSE 16:41:52 34° E 16:43:15 27° NE
COSMOS 2406 3.9 16:36:52 10° SW 16:42:29 53° NW 16:48:00 10° NNE
Cosmos 1814 Rocket 3.9 16:37:57 10° SSW 16:43:10 86° ESE 16:47:38 14° NNE
Cosmos 921 Rocket 3.3 16:40:18 10° S 16:44:17 44° ESE 16:45:57 29° NE
Cosmos 1570 Rocket 3.9 16:44:47 10° SSW 16:50:02 86° ESE 16:54:14 16° NNE
MOS 1-B Rocket 4.1 16:44:52 10° NNE 16:50:51 66° ESE 16:57:44 10° S
CZ-4B R/B 3.0 16:48:24 10° SSE 16:53:45 75° ENE 16:59:04 10° NNW
USA 267 3.2 16:50:26 24° ENE 16:54:38 77° SE 17:01:10 10° SW
Cosmos 2298 Rocket 4.0 16:49:37 10° NNW 16:54:59 87° ENE 17:00:20 10° SSE
Cosmos 371 Rocket 4.1 16:51:06 10° N 16:55:08 30° NE 16:55:08 30° NE
CZ-2D R/B 3.6 16:52:20 10° S 16:56:08 66° WSW 16:59:57 10° NNW
MOS 1-B 4.4 16:52:52 10° SSE 16:58:40 80° WSW 17:04:30 10° NNW
YAOGAN 3 4.5 16:55:31 10° SSE 16:59:49 65° ENE 17:04:10 10° N
ATLAS CENTAUR R/B 2.7 16:51:50 10° WSW 16:59:53 61° NNW 17:01:30 34° NE
COSMO-SKYMED 1 2.6 16:59:10 32° NE 17:00:53 54° E 17:05:09 10° S
Cosmos 1633 Rocket 3.7 16:56:59 10° NNW 17:01:18 58° W 17:05:36 10° S
Cosmos 1151 Rocket 3.4 16:57:59 10° SSW 17:02:17 65° WNW 17:06:40 10° N
USA 306 2.8 16:58:04 10° WNW 17:02:20 87° SSW 17:03:51 39° ESE
Meteor 1-27 Rocket 4.0 16:57:22 10° SSE 17:02:27 40° E 17:04:01 33° NE
Cosmos 1666 3.9 16:59:30 10° NNW 17:03:02 42° W 17:06:33 10° SSW
Landsat 5 4.2 17:05:04 34° SE 17:05:04 34° SE 17:07:51 10° SSE
APEX 3.4 17:01:26 10° SSW 17:04:23 42° SSE 17:04:23 42° SSE
Meteor 2-6 Rocket 4.1 16:59:38 10° S 17:05:21 87° E 17:10:56 10° NNE
Cosmos 2360 Rocket 2.4 17:00:39 10° NNW 17:06:10 49° NE 17:08:17 33° ESE
SJ-11-01 4.2 17:01:53 10° SSE 17:06:38 78° ENE 17:11:23 10° NNW
Cosmos 2237 4.1 17:03:45 10° NNW 17:09:28 66° ENE 17:13:44 18° SE
YAOGAN 1 3.7 17:11:21 27° NNE 17:11:21 27° NNE 17:13:38 10° N
Cosmos 1900 4.3 17:04:55 10° SW 17:09:47 83° NW 17:11:53 35° NNE
Cosmos 2279 Rocket 4.4 17:12:17 10° SSW 17:18:26 64° WNW 17:24:37 10° N
Cosmos 1536 4.2 17:14:37 10° N 17:16:30 26° N 17:16:30 26° N
ATLAS 5 CENTAUR R/B 1.8 17:12:27 10° NW 17:19:05 77° SW 17:19:39 58° SSE
Cosmos 2266 Rocket 4.0 17:13:59 10° N 17:20:26 88° W 17:26:51 10° S
Meteor 2-15 4.4 17:14:35 10° S 17:20:42 90° E 17:26:50 10° N
ERBS 4.1 17:19:09 10° NW 17:20:46 22° NNW 17:20:46 22° NNW
USA 307 2.9 17:18:38 10° WNW 17:22:54 74° SSW 17:23:33 60° SSE
CZ-4C R/B 4.3 17:16:14 10° NW 17:22:58 40° WSW 17:30:39 10° S
SKYMED 3 4.5 17:23:34 41° NNE 17:25:04 88° WNW 17:29:25 10° SSW
SL-08 RB Rocket 3.6 17:20:42 10° SSE 17:25:19 82° ENE 17:29:56 10° NNW
Lacrosse 5 rocket 3.2 17:22:10 10° WNW 17:25:34 28° SW 17:28:56 11° SSE
NOSS 3-4 (A) 4.0 17:20:54 10° NW 17:27:20 47° NNE 17:28:52 42° ENE
NOSS 3-4 (C) 4.0 17:21:00 10° NW 17:27:26 47° NNE 17:28:56 41° ENE
Cosmos 1933 Rocket 3.5 17:24:07 10° NNW 17:28:29 80° W 17:32:48 10° S
Cosmos 2322 Rocket 2.2 17:23:11 10° NNW 17:28:55 82° WSW 17:34:37 10° SSE
USA 234 3.9 17:23:18 10° SE 17:29:42 54° SW 17:36:06 10° WNW
COSMOS 2428 3.8 17:24:58 10° NNW 17:28:44 28° NNE 17:28:44 28° NNE
ATLAS 2AS CENTAUR R/B 3.6 17:23:18 10° NW 17:30:03 34° NNE 17:31:18 32° NE
NOAA 15 4.4 17:28:57 10° SSE 17:34:13 75° ENE 17:39:30 10° NNW
Cosmos 1544 4.0 17:31:07 10° NNW 17:34:36 46° W 17:38:04 10° SSW
Cosmos 1125 Rocket 4.3 17:31:36 10° NNW 17:36:42 51° WSW 17:41:46 10° S
Cosmos 1867 3.6 17:33:18 10° SSW 17:38:27 57° SE 17:38:27 57° SE
NOSS 3-3 (A) 4.2 17:33:29 10° S 17:38:22 44° SE 17:38:22 44° SE
NOSS 3-3 (C) 4.3 17:33:35 10° S 17:38:27 43° SE 17:38:27 43° SE
H-2A R/B 3.5 17:34:27 10° SSW 17:39:09 36° W 17:43:46 10° NNW
X-37B 3.4 17:37:22 10° SW 17:37:49 13° SSW 17:37:49 13° SSW
Okean O Rocket 2.4 17:36:27 10° S 17:40:48 52° W 17:45:11 10° NNW
Meteor 1-11 Rocket 4.1 17:36:05 10° NNW 17:41:40 65° W 17:47:22 10° S
GEOS 3 Rocket 3.6 17:41:55 64° NE 17:41:55 64° NE 17:47:01 10° NW
Meteor 1-10 Rocket 4.5 17:36:50 10° SSW 17:42:32 67° WNW 17:47:11 16° N
Cosmos 2322 4.4 17:38:42 10° NNW 17:42:44 37° NNE 17:42:44 37° NNE
USA 32 3.9 17:39:07 10° S 17:44:20 89° W 17:46:22 39° N
ATLAS CENTAUR R/B 3.9 17:42:39 10° NNW 17:44:13 14° N 17:44:13 14° N
USA 308 3.4 17:41:21 10° WNW 17:45:21 56° SW 17:45:21 56° SW
SKYMED 2 4.3 17:47:47 39° NNW 17:48:58 52° WNW 17:53:11 10° SSW
SL-16 R/B 3.2 17:43:56 10° NW 17:49:21 46° WSW 17:54:43 10° S
ARGOS 4.0 17:45:42 10° S 17:50:55 49° W 17:56:11 10° NNW
Cosmos 2237 Rocket 4.1 17:47:18 10° N 17:49:04 16° N 17:49:04 16° N
Cosmos 2082 Rocket 3.8 17:48:57 10° WSW 17:53:53 30° NW 17:56:56 19° N
Cosmos 1244 Rocket 4.4 17:52:10 10° N 17:57:59 68° NE 17:57:59 68° NE
Cosmos 1241 Rocket 4.3 17:55:51 10° SSW 18:01:58 73° SE 18:01:58 73° SE
COSMOS 2455 4.3 17:57:23 10° W 18:02:38 30° NW 18:04:54 24° N
Cosmos 2333 Rocket 2.7 18:03:48 10° NNW 18:08:05 50° NNW 18:08:05 50° NNW
USA 305 4.5 18:05:48 10° WNW 18:08:52 33° WSW 18:08:52 33° WSW
CZ-2C R/B 3.7 18:06:50 20° N 18:09:57 41° WNW 18:14:46 10° SW
Cosmos 2219 Rocket 3.2 18:11:44 10° NNW 18:15:04 36° NNW 18:15:04 36° NNW
Aureole 3 Rocket 4.3 18:14:09 10° SSW 18:18:52 55° WNW 18:25:34 10° N
USA 267 3.6 18:37:47 57° NNW 18:37:47 57° NNW 18:43:55 10° W
Cosmos 2360 Rocket 3.6 18:44:57 10° NW 18:50:00 34° WSW 18:50:08 34° WSW
ATLAS 2AS CENTAUR R/B 4.0 19:14:46 10° NW 19:18:45 34° NW 19:18:45 34° NW
